Find OneWeb SL0444

NORAD ID: 51638 Int'l Des: 2022-012 Owner: ONEWEBN Country: UK Constellation: oneweb operational
LEOCIRCULARPOLARONEWEB_TYPE

当前视图

正在加载3D地球...

About OneWeb SL0444

OneWeb SL0444 (NORAD 51638) is a oneweb constellation satellite launched Feb 10, 2022 by ONEWEBN of UK. It operates in LEO, CIRCULAR, POLAR, ONEWEB_TYPE orbit with a mass of 148.00 kg.

关于 OneWeb SL0444

正在加载描述...

即将过境

Passes for default location (London). Set your location on the main map for personalized predictions.

高度历史

Loading altitude history...

两行轨道根数

1 51638U 22012S 26173.59414360 .00000388 00000-0 10770-2 0 9997
2 51638 87.8831 35.1901 0001669 78.0060 282.1254 13.10284130210046
Epoch: Jun 22, 2026 • Age: 20 hours

当前状态

高度 1224.7 km
速度 7.24 km/s
星下点 -0.30°S, 32.86°W
发射日期 Feb 10, 2022
运行时间 4.3 years
类型 internet

技术详情

分类 Payload
质量 148.00 kg
干质量 140.00 kg
总质量 148.00 kg
长度 1.30 m
直径 1.00 m
跨度 5.00 m
形状 Trapezoid+2 pan
制造商 ONEWUS
平台类型 ARROW
阶段状态 In Orbit
所有者/国家 ONEWEBN/UK

Most Searched